{"data":{"norad_id":58262,"epoch":"2026-05-24T22:06:36.393120Z","epoch_age_seconds":91916,"freshness":"FRESH","line1":"1 58262U 23174G   26144.92125455  .00029705  00000+0  34763-3 0  9998","line2":"2 58262  97.3927 241.9183 0005324 175.1709 184.9601 15.61504903142554","mean_motion":15.61504903,"eccentricity":0.0005324,"inclination_deg":97.3927,"raan_deg":241.9183,"arg_perigee_deg":175.1709,"mean_anomaly_deg":184.9601,"bstar":0.00034763,"rev_number":14255,"period_min":92.218730612593,"perigee_km":379.7095578322,"apogee_km":386.90914590767,"semimajor_km":6761.4463518699,"source":"CELESTRAK","updated_at":"2026-05-25T13:38:00.640080Z"}}